Retour au catalogue

PEGASUS R/B

ActifPO
NORAD 23815·ROCKET BODY·🇺🇸 United States

Lancé Mar 9, 1996 depuis Vandenberg Space Force Base

Loading…

Prochains Passages (prochaines 24 heures)

TLE

FraisSource: Space-Track

Époque: Sep 14, 2026, 22:22 UTC

1 23815U 96014B   26257.93202669  .00000133  00000-0  51059-4 0  9999
2 23815  89.9976 338.7660 0021051 194.9268 165.1307 14.25737367586445

Suivez PEGASUS R/B en temps réel avec AllMySat

Download on the App Store